Weather History for Lovelock, NV

Change the Weather History Date:

Saturday, March 2, 2013

  Actual Average Record
Temperature  
Mean Temperature 44 °F -  
Max Temperature 64 °F 52 °F 68 °F (2009)
Min Temperature 25 °F 27 °F -2 °F (1971)
Degree Days  
Heating Degree Days 20    
Moisture  
Dew Point 24 °F    
Average Humidity 43    
Maximum Humidity 78    
Minimum Humidity 21    
Precipitation  
Precipitation 0.00 in - - ()
Sea Level Pressure  
Sea Level Pressure 30.21 in    
Wind  
Wind Speed 5 mph (South)    
Max Wind Speed 15 mph    
Max Gust Speed -    
Visibility 10 miles    
Events      
Averages and records for this station are not official NWS values.
T = Trace of Precipitation, MM = Missing Value Source: NWS Daily Summary

Daily Weather History Graph

Daily Weather History Graph

Search for Another Location

Airport:

Trip Planner

Search our weather history database for the weather conditions in past years. The results will help you decide how hot, cold, wet, or windy it might be!

Date:

Astronomy

Mar. 02, 2013 Rise Set
Actual Time 6:25 AM PST 5:47 PM PST
Civil Twilight 5:58 AM PST 6:14 PM PST
Nautical Twilight 5:27 AM PST 6:46 PM PST
Astronomical Twilight 4:55 AM PST 7:17 PM PST
Moon 11:32 PM PST (3/2) 8:57 AM PST (3/2)
Length of Visible Light 12h 16m
Length of Day
11h 21m
Waning Gibbous, 73% of the Moon is Illuminated
Mar 2
Waning Gibbous
Mar 4
Last Quarter
Mar 11
New
Mar 19
First Quarter
Mar 27
Full

Hourly Weather History & Observations

Time (PST) Temp. Windchill Dew Point Humidity Pressure Visibility Wind Dir Wind Speed Gust Speed Precip Events Conditions
1:53 AM 28.0 °F 22.8 °F 18.0 °F 66% 30.36 in 10.0 mi ESE 4.6 mph - N/A   Clear
2:53 AM 25.0 °F 20.7 °F 17.1 °F 72% 30.35 in 10.0 mi SSW 3.5 mph - N/A   Clear
4:53 AM 28.0 °F - 19.9 °F 72% 30.33 in 10.0 mi Calm Calm - N/A   Clear
5:53 AM 26.1 °F 18.4 °F 16.0 °F 66% 30.33 in 10.0 mi East 6.9 mph - N/A   Clear
6:53 AM 27.0 °F - 21.0 °F 78% 30.35 in 10.0 mi Calm Calm - N/A   Clear
7:53 AM 33.1 °F 30.0 °F 24.1 °F 70% 30.35 in 10.0 mi ENE 3.5 mph - N/A   Clear
8:53 AM 41.0 °F - 27.0 °F 57% 30.34 in 10.0 mi Calm Calm - N/A   Clear
9:53 AM 53.1 °F - 30.9 °F 43% 30.30 in 9.0 mi East 5.8 mph - N/A   Clear
10:53 AM 55.0 °F - 28.9 °F 37% 30.29 in 10.0 mi Variable 3.5 mph - N/A   Clear
11:53 AM 57.9 °F - 27.0 °F 31% 30.25 in 10.0 mi Variable 3.5 mph - N/A   Clear
12:53 PM 61.0 °F - 27.0 °F 27% 30.20 in 10.0 mi WSW 8.1 mph - N/A   Clear
1:53 PM 63.0 °F - 25.0 °F 24% 30.17 in 10.0 mi WSW 9.2 mph - N/A   Clear
2:53 PM 64.0 °F - 23.0 °F 21% 30.15 in 10.0 mi SSW 6.9 mph - N/A   Clear
3:53 PM 63.0 °F - 23.0 °F 22% 30.13 in 10.0 mi South 5.8 mph - N/A   Clear
4:53 PM 60.1 °F - 23.0 °F 24% 30.11 in 10.0 mi SE 3.5 mph - N/A   Clear
5:53 PM 57.0 °F - 25.0 °F 29% 30.10 in 10.0 mi East 3.5 mph - N/A   Clear
6:53 PM 50.0 °F - 24.1 °F 36% 30.11 in 10.0 mi WNW 4.6 mph - N/A   Clear
7:53 PM 48.0 °F - 23.0 °F 37% 30.11 in 10.0 mi NNW 4.6 mph - N/A   Partly Cloudy
8:53 PM 52.0 °F - 24.1 °F 34% 30.08 in 10.0 mi SE 5.8 mph - N/A   Mostly Cloudy
9:53 PM 46.9 °F - 23.0 °F 39% 30.07 in 10.0 mi SW 6.9 mph - N/A   Overcast
10:53 PM 54.0 °F - 26.1 °F 34% 30.03 in 10.0 mi West 15.0 mph - N/A   Scattered Clouds
11:53 PM 54.0 °F - 25.0 °F 33% 30.01 in 10.0 mi South 8.1 mph - N/A   Overcast